Location: ?????????
(54.7630°N, 39.4991°E)
Time: 11:51:35
(UTC+00:00)

Cosmos 1725 Rocket - Pass Details

Date: 14 April 2026
Orbit: 960 x 990 km, 82.9° (Epoch: 10 May)

Event Time Altitude Azimuth Distance (km) Brightness Sun altitude
Exits shadow 21:33:54 57° 210° (SSW) 1,153 4.0 -25.5°
Maximum altitude 21:35:15 79° 282° (WNW) 1,015 4.0 -25.5°
Drops below altitude 10° 21:41:37 10° 10° (N) 2,760 7.4 -25.4°
Sets 21:44:09 0° 12° (NNE) 3,710 8.4 -25.4°
